This is the latest recevied weather packets stored in our database for station/object WW3TRG. If no packets are shown the sender has not sent any weather packets the latest 10 day(s).
| Time | Temp. | Humidity | Pressure | Rain* | Wind** | Luminosity | Snow |
|---|---|---|---|---|---|---|---|
| 1778160800 | 12.78° C | 56% | 1011.7 hPa | 0 mm | - | 439 W/m² | - |
| 1778160499 | 12.78° C | 57% | 1011.7 hPa | 0 mm | - | 336 W/m² | - |
| 1778160194 | 12.22° C | 57% | 1011.5 hPa | 0 mm | - | 371 W/m² | - |
| 1778159892 | 12.22° C | 58% | 1011.6 hPa | 0 mm | - | 331 W/m² | - |
| 1778159589 | 12.22° C | 57% | 1011.8 hPa | 0 mm | - | 331 W/m² | - |
| 1778159285 | 11.67° C | 58% | 1011.6 hPa | 0 mm | - | 391 W/m² | - |
| 1778158983 | 12.22° C | 58% | 1011.7 hPa | 0 mm | - | 346 W/m² | - |
| 1778158681 | 11.67° C | 60% | 1011.4 hPa | 0 mm | - | 295 W/m² | - |
| 1778158379 | 11.67° C | 63% | 1011.6 hPa | 0 mm | - | 287 W/m² | - |
| 1778158075 | 11.67° C | 64% | 1011.4 hPa | 0 mm | - | 270 W/m² | - |
| 1778157772 | 11.67° C | 64% | 1011.5 hPa | 0 mm | - | 302 W/m² | - |
| 1778157471 | 11.67° C | 64% | 1011.6 hPa | 0 mm | - | 259 W/m² | - |
| 1778157168 | 11.67° C | 65% | 1011.5 hPa | 0 mm | - | 235 W/m² | - |
| 1778156863 | 11.11° C | 66% | 1011.3 hPa | 0 mm | - | 209 W/m² | - |
| 1778156559 | 11.67° C | 66% | 1011.4 hPa | 0 mm | - | 231 W/m² | - |
| 1778156255 | 11.67° C | 68% | 1011.5 hPa | 0 mm | - | 242 W/m² | - |
| 1778155951 | 11.11° C | 67% | 1011.5 hPa | 0 mm | - | 239 W/m² | - |
| 1778155647 | 11.67° C | 68% | 1011.3 hPa | 0 mm | - | 174 W/m² | - |
| 1778155344 | 10.56° C | 68% | 1011.4 hPa | 0 mm | - | 188 W/m² | - |
| 1778155040 | 10.56° C | 69% | 1011.5 hPa | 0 mm | - | 164 W/m² | - |
| 1778154736 | 10.56° C | 69% | 1011.5 hPa | 0 mm | - | 148 W/m² | - |
| 1778154432 | 10.56° C | 71% | 1011.4 hPa | 0 mm | - | 147 W/m² | - |
| 1778154130 | 10.56° C | 72% | 1011.5 hPa | 0 mm | - | 138 W/m² | - |
| 1778153827 | 10.56° C | 71% | 1011.4 hPa | 0 mm | - | 135 W/m² | - |
| 1778153524 | 11.11° C | 75% | 1011.2 hPa | 0 mm | - | 110 W/m² | - |
* Rain latest hour (hover to see other rain measurements)
** Current wind speed in m/s (hover to see current wind gust speed)